Regional Weather Roundup
Issued by NWS

Home | Current Version | Previous Version | Graphics & Text | Print | Product List | Glossary On
Versions: 1 2 3 4 5 6 7 8 9 10 11 12 13 14 15 16 17 18 19 20 21 22 23 24 25 26 27 28 29 30 31 32 33 34 35 36 37 38 39 40 41 42 43 44 45 46 47 48 49 50
000
ASUS43 KLSX 260110
RWRMO

WEATHER SUMMARY FOR MISSOURI
NATIONAL WEATHER SERVICE SPRINGFIELD MO
800 PM CDT SUN SEP 25 2016

NOTE: "FAIR" INDICATES FEW OR NO CLOUDS BELOW 12,000 FEET WITH NO
       SIGNIFICANT WEATHER AND/OR OBSTRUCTIONS TO VISIBILITY.
       CURRENT SKY AND/OR WEATHER CONDITIONS ARE NOT AVAILABLE FOR
       CHILLICOTHE AND FARMINGTON.

MOZ001>031-035>038-043-044-053-054-260200-
...NORTHERN AND WESTERN MISSOURI...

CITY           SKY/WX    TMP DP  RH WIND       PRES   REMARKS
KANSAS CTY INT CLOUDY    62  55  77 W3        30.15R
KANSAS C DTWN  CLOUDY    65  57  75 CALM      30.15R
LEE`S SUMMIT   CLOUDY    62  58  86 W3        30.16R
ST JOSEPH      CLOUDY    64  56  75 CALM      30.15R
CHILLICOTHE      N/A     64  55  72 NW3       30.14R
KIRKSVILLE     CLOUDY    63  56  78 W3        30.11R

$$
MOZ066>068-077>081-088>096-101>105-260200-
...SOUTHWEST MISSOURI...

CITY           SKY/WX    TMP DP  RH WIND       PRES   REMARKS
SPRINGFIELD    LGT RAIN  68  64  87 NW10      30.12R
JOPLIN         LGT RAIN  62  60  93 N9        30.17R
BRANSON        MOCLDY    73  68  83 NW9       30.10R

$$
MOZ032>034-039>042-045>050-055>058-069>072-260200-
...CENTRAL MISSOURI...

CITY           SKY/WX    TMP DP  RH WIND       PRES   REMARKS
COLUMBIA       CLOUDY    68  58  70 NW18G25   30.10R
JEFFERSON CITY CLOUDY    71  61  70 NW14G22   30.07R
ROLLA          RAIN      69  67  93 N9        30.06F
SEDALIA        CLOUDY    64  56  75 NW7       30.15R
WHITEMAN AFB   MOCLDY    63  61  96 NW3       30.13R
OSAGE BEACH    CLOUDY    72  66  83 NW8       30.09R

$$
MOZ051-052-059>065-260200-
...EAST CENTRAL MISSOURI...

CITY           SKY/WX    TMP DP  RH WIND       PRES   REMARKS
ST LOUIS INTL  CLOUDY    81  66  60 NW12G20   30.02R
SPIRIT OF STL  CLEAR     78  68  71 NW9       30.01R
ST CHARLES     CLEAR     78  69  73 NW12      30.00R

$$
MOZ072>076-082>087-097>100-106>115-260200-
...SOUTH CENTRAL AND SOUTHEAST MISSOURI...

CITY           SKY/WX    TMP DP  RH WIND       PRES   REMARKS
CAPE GIRARDEAU CLEAR     75  70  84 S5        29.99R
FARMINGTON     CLEAR     74  71  91 CALM      30.03R
WEST PLAINS    PTCLDY    75  69  81 NW7       30.07R

$$




USA.gov is the U.S. government's official web portal to all federal, state and local government web resources and services.